EW2082 Weather Reports


Display with metric or nautical units.
time (UTC)temp
F
wind
direction
speed
MPH
gust
MPH
rain 1hr
in
rain 24hr
in
rain mn
in
humidity
%
barometer
mb
20260510231004 78 345 0.0 3.0 0.00 0.00 0.00 59 1011.6
20260510230006 78 24 0.0 2.0 0.00 0.00 0.00 58 1011.6
20260510225004 78 9 0.0 4.0 0.00 0.00 0.00 58 1011.6
20260510224005 78 36 0.0 3.0 0.00 0.00 0.00 57 1011.5
20260510223004 78 11 0.0 2.0 0.00 0.00 0.00 59 1011.6
20260510215005 77 169 0.0 4.0 0.00 0.00 0.00 59 1011.7
20260510214005 78 9 0.0 2.0 0.00 0.00 0.00 59 1011.7
20260510212005 78 342 0.0 5.0 0.00 0.00 0.00 59 1011.8
20260510211006 78 27 0.0 2.0 0.00 0.00 0.00 58 1011.9
20260510210006 78 170 1.0 3.0 0.00 0.00 0.00 58 1011.8
20260510205005 79 52 2.0 3.0 0.00 0.00 0.00 56 1011.8
20260510204006 78 264 0.0 8.0 0.00 0.00 0.00 57 1011.9
20260510203005 78 136 0.0 4.0 0.00 0.00 0.00 56 1011.9
20260510202005 79 195 0.0 3.0 0.00 0.00 0.00 55 1012.1
20260510201005 80 217 0.0 2.0 0.00 0.00 0.00 57 1012.1
20260510200005 79 197 1.0 4.0 0.00 0.00 0.00 56 1012.1
20260510195004 79 216 0.0 1.0 0.00 0.00 0.00 58 1012.2
20260510194004 78 234 0.0 3.0 0.00 0.00 0.00 57 1012.2
20260510191004 77 148 0.0 2.0 0.00 0.00 0.00 60 1012.2
20260510190004 77 143 0.0 4.0 0.00 0.00 0.00 59 1012.2
20260510185005 77 75 0.0 5.0 0.00 0.00 0.00 58 1012.3
20260510184004 77 137 0.0 3.0 0.00 0.00 0.00 60 1012.4
20260510183005 77 210 0.0 4.0 0.00 0.00 0.00 58 1012.4
20260510182004 77 53 0.0 2.0 0.00 0.00 0.00 60 1012.4
20260510181004 76 195 2.0 3.0 0.00 0.00 0.00 61 1012.4
20260510180004 76 205 0.0 3.0 0.00 0.00 0.00 61 1012.3
20260510174004 74 220 0.0 3.0 0.00 0.00 0.00 64 1012.2
20260510171004 74 179 0.0 2.0 0.00 0.00 0.00 66 1012.0
20260510170004 73 115 0.0 1.0 0.00 0.00 0.00 66 1011.9
20260510165004 72 158 2.0 3.0 0.00 0.00 0.00 67 1011.9
20260510163004 72 167 0.0 0.0 0.00 0.00 0.00 69 1011.9
20260510162004 70 210 0.0 2.0 0.00 0.00 0.00 72 1012.0
20260510161004 68 178 0.0 1.0 0.00 0.00 0.00 77 1012.0
20260510160004 68 212 1.0 2.0 0.00 0.00 0.00 75 1011.8
20260510155004 67 173 0.0 0.0 0.00 0.00 0.00 78 1011.9
20260510154004 66 196 0.0 0.0 0.00 0.00 0.00 78 1011.8
20260510153004 66 195 0.0 2.0 0.00 0.00 0.00 79 1011.9
20260510152004 66 157 0.0 0.0 0.00 0.00 0.00 80 1011.7
20260510151004 66 192 0.0 0.0 0.00 0.00 0.00 81 1011.7
20260510150004 65 192 0.0 2.0 0.00 0.00 0.00 82 1011.8
20260510145003 64 192 0.0 0.0 0.00 0.00 0.00 84 1011.8
20260510144003 63 192 0.0 0.0 0.00 0.00 0.00 85 1011.6
20260510143004 63 192 0.0 0.0 0.00 0.00 0.00 85 1011.5
20260510142004 62 192 0.0 0.0 0.00 0.00 0.00 85 1011.6
20260510135003 62 192 0.0 0.0 0.00 0.00 0.00 87 1011.4
20260510134003 62 192 0.0 2.0 0.00 0.00 0.00 87 1011.2
20260510133004 62 192 0.0 0.0 0.00 0.00 0.00 88 1011.2
20260510132004 61 239 0.0 0.0 0.00 0.00 0.00 88 1011.2
20260510131003 61 239 0.0 0.0 0.00 0.00 0.00 88 1011.0
20260510130005 61 239 0.0 0.0 0.00 0.00 0.00 88 1011.0
20260510125005 61 239 0.0 0.0 0.00 0.00 0.00 88 1011.0
20260510123005 61 192 0.0 0.0 0.00 0.00 0.00 89 1011.2
20260510121003 61 192 0.0 0.0 0.00 0.00 0.00 89 1011.1
20260510120005 61 192 0.0 0.0 0.00 0.00 0.00 89 1011.2
20260510115003 61 192 0.0 0.0 0.00 0.00 0.00 89 1011.2
20260510114004 61 192 0.0 0.0 0.00 0.00 0.00 89 1011.1
20260510113004 60 192 0.0 0.0 0.00 0.00 0.00 89 1011.0
20260510112003 60 228 0.0 0.0 0.00 0.00 0.00 90 1011.0
20260510111004 60 202 0.0 0.0 0.00 0.00 0.00 90 1011.0
20260510110005 60 202 0.0 0.0 0.00 0.00 0.00 90 1011.0
20260510105004 60 208 0.0 0.0 0.00 0.00 0.00 90 1011.1
20260510104005 60 202 0.0 0.0 0.00 0.00 0.00 90 1011.1
20260510103004 60 193 0.0 0.0 0.00 0.00 0.00 90 1011.2
20260510102003 60 191 0.0 0.0 0.00 0.00 0.00 90 1011.3
20260510101004 61 197 0.0 0.0 0.00 0.00 0.00 90 1011.2
20260510100004 61 214 0.0 1.0 0.00 0.00 0.00 90 1011.3
20260510095004 61 205 0.0 1.0 0.00 0.00 0.00 90 1011.4
20260510094004 61 193 0.0 0.0 0.00 0.00 0.00 90 1011.2
20260510093003 61 192 0.0 0.0 0.00 0.00 0.00 90 1011.3
20260510092004 61 193 0.0 0.0 0.00 0.00 0.00 90 1011.3
20260510091003 61 234 0.0 1.0 0.00 0.00 0.00 89 1011.3
20260510090004 61 212 0.0 0.0 0.00 0.00 0.00 89 1011.3
20260510085005 62 176 0.0 0.0 0.00 0.00 0.00 89 1011.3
20260510083005 62 207 0.0 0.0 0.00 0.00 0.00 89 1011.2
20260510082005 62 207 0.0 0.0 0.00 0.00 0.00 89 1011.4
20260510081005 62 204 0.0 0.0 0.00 0.00 0.00 89 1011.4
20260510080006 62 192 0.0 0.0 0.00 0.00 0.00 90 1011.5
20260510075004 61 278 0.0 0.0 0.00 0.00 0.00 90 1011.5
20260510074005 61 278 0.0 0.0 0.00 0.00 0.00 90 1011.6
20260510071004 61 278 0.0 0.0 0.00 0.00 0.00 91 1011.8
20260510070006 61 267 0.0 0.0 0.00 0.00 0.00 91 1011.8
20260510065004 61 267 0.0 0.0 0.00 0.00 0.00 91 1011.6
20260510064004 61 267 0.0 0.0 0.00 0.00 0.00 91 1011.8
20260510063004 61 267 0.0 0.0 0.00 0.00 0.00 92 1011.7
20260510062004 60 267 0.0 0.0 0.00 0.00 0.00 92 1011.7
20260510061004 60 267 0.0 0.0 0.00 0.00 0.00 92 1011.7
20260510060005 60 267 0.0 0.0 0.00 0.00 0.00 92 1011.8
20260510055004 60 267 0.0 0.0 0.00 0.00 0.00 92 1011.7
20260510054005 60 267 0.0 0.0 0.00 0.00 0.00 92 1011.9
20260510053004 60 300 0.0 0.0 0.00 0.00 0.00 92 1011.9
20260510052004 59 268 0.0 1.0 0.00 0.00 0.00 92 1011.7
20260510051004 60 281 0.0 3.0 0.00 0.00 0.00 92 1011.9
20260510050005 60 285 0.0 2.0 0.00 0.00 0.00 92 1011.8
20260510045004 60 271 0.0 1.0 0.00 0.00 0.00 91 1011.8
20260510044004 60 313 0.0 0.0 0.00 0.00 0.00 91 1011.8
20260510043004 60 305 0.0 1.0 0.00 0.00 0.00 91 1011.8
20260510042004 60 271 0.0 1.0 0.00 0.00 0.00 91 1011.7
20260510041004 60 297 0.0 2.0 0.00 0.00 0.00 91 1011.6
20260510040004 60 20 0.0 1.0 0.00 0.00 0.00 90 1011.5
20260510035004 60 335 0.0 1.0 0.00 0.00 0.00 90 1011.4
20260510034004 61 337 0.0 3.0 0.00 0.00 0.00 90 1011.3
20260510033004 61 349 0.0 2.0 0.00 0.00 0.00 89 1011.2
20260510032005 61 25 0.0 3.0 0.00 0.00 0.00 89 1011.0
20260510030005 62 38 0.0 3.0 0.00 0.00 0.00 88 1010.6
20260510025004 62 359 0.0 2.0 0.00 0.00 0.00 87 1010.6
20260510023005 63 358 1.0 3.0 0.00 0.00 0.00 85 1010.5
20260510022004 64 27 1.0 1.0 0.00 0.00 0.00 83 1010.4
20260510021005 64 356 1.0 4.0 0.00 0.00 0.00 82 1010.3
20260510020005 65 314 0.0 4.0 0.00 0.00 0.00 81 1010.1
20260510015004 66 302 0.0 4.0 0.00 0.00 0.00 78 1010.2
20260510014004 67 50 0.0 4.0 0.00 0.00 0.00 77 1010.1
20260510013004 67 75 1.0 3.0 0.00 0.00 0.00 76 1010.2
20260510012004 68 51 1.0 8.0 0.00 0.00 0.00 76 1010.0
20260510011004 68 287 0.0 5.0 0.00 0.00 0.00 74 1009.9
20260510010005 70 20 0.0 4.0 0.00 0.00 0.00 72 1010.0
20260510005004 70 1 0.0 6.0 0.00 0.00 0.00 72 1010.0
20260510004004 71 358 0.0 3.0 0.00 0.00 0.00 70 1010.0
20260510003004 72 59 0.0 4.0 0.00 0.00 0.00 69 1010.0
20260510002004 72 298 0.0 3.0 0.00 0.00 0.00 68 1010.0
20260510001005 72 65 0.0 7.0 0.00 0.00 0.00 68 1010.1
20260510000004 74 298 0.0 5.0 0.00 0.00 0.00 65 1010.1
20260509234004 74 276 1.0 5.0 0.00 0.00 0.00 65 1010.0
20260509233004 74 271 0.0 5.0 0.00 0.00 0.00 65 1010.1
20260509232004 74 19 3.0 5.0 0.00 0.00 0.00 63 1010.2